Location: Terra Rouge Observatory
(46.0000°N, 62.7500°W)
Time: 20:14:15
(UTC-03:00)

NOSS 3-1 (A) - Visible Passes

Search period start: 28 August 2014 00:00
Search period end: 07 September 2014 00:00
Orbit: 896 x 1317 km, 63.4° (Epoch: 26 August)

Date Brightness Start Highest point End Pass type
(mag) Time Alt. Az. Time Alt. Az. Time Alt. Az.
28 Aug 4.3 21:12:29 10° NW 21:19:54 69° WSW 21:27:18 13° SSE visible
28 Aug 6.1 23:05:36 10° WNW 23:09:50 16° WSW 23:14:12 10° SW visible
29 Aug 4.1 20:27:46 10° NW 20:35:13 86° NE 20:43:17 10° SE visible
29 Aug 5.6 22:19:41 10° WNW 22:25:36 25° WSW 22:31:47 10° SSW visible
30 Aug 5.2 21:34:25 10° NW 21:41:14 38° WSW 21:48:27 10° S visible
31 Aug 4.6 20:49:27 10° NW 20:56:44 55° WSW 21:04:32 10° SSE visible
31 Aug 6.4 22:44:22 10° W 22:46:23 11° WSW 22:48:27 10° WSW visible
01 Sep 6.1 21:57:12 10° WNW 22:02:14 19° WSW 22:07:26 10° SSW visible
02 Sep 5.6 21:11:37 10° NW 21:17:56 29° WSW 21:24:35 10° SSW visible
03 Sep 5.1 20:26:29 10° NW 20:33:31 44° WSW 20:41:00 10° S visible
04 Sep 6.4 21:35:12 10° WNW 21:38:48 14° WSW 21:42:31 10° SW visible
05 Sep 6.1 20:48:59 10° WNW 20:54:36 23° WSW 21:00:28 10° SSW visible
06 Sep 5.7 20:03:36 10° NW 20:10:15 34° WSW 20:17:17 10° S visible
